{"data":{"norad_id":64761,"epoch":"2026-09-19T23:30:01.728288Z","epoch_age_seconds":172651,"freshness":"FRESH","line1":"1 64761U 25147G   26262.97918667  .00017339  00000+0  52274-3 0  9999","line2":"2 64761  53.1587  56.3766 0001123  96.8356 263.2774 15.34423032 68554","mean_motion":15.34423032,"eccentricity":0.0001123,"inclination_deg":53.1587,"raan_deg":56.3766,"arg_perigee_deg":96.8356,"mean_anomaly_deg":263.2774,"bstar":0.00052274,"rev_number":6855,"period_min":93.846349407508,"perigee_km":461.86656643415,"apogee_km":463.40300377708,"semimajor_km":6840.7717851056,"source":"CELESTRAK","updated_at":"2026-09-21T09:00:35.437120Z"}}